Weather Service Report


236 
ASUS44 KMEG 110600
RWRMEG
MEMPHIS CWA HOURLY WEATHER ROUNDUP
NATIONAL WEATHER SERVICE MEMPHIS TN
1200 AM CST SUN DEC 11 2016

...WEST TENNESSEE...
  
CITY           SKY/WX    TMP DP  RH WIND       PRES   REMARKS
MEMPHIS INTL   PTCLDY    37  17  44 SE8       30.30F WCI  31          
6HR MIN TEMP:  36; 6HR MAX TEMP:  42;                                

NWS MEMPHIS      N/A     35 N/A N/A MISG        N/A                   
JACKSON        CLOUDY    38  17  42 S6        30.32F WCI  33          
6HR MIN TEMP:  26; 6HR MAX TEMP:  38;                                

BOLIVAR        CLEAR     34  18  51 SE5       30.33R WCI  30          
DYERSBURG      CLOUDY    37  18  44 S7        30.31F WCI  32          
6HR MIN TEMP:  36; 6HR MAX TEMP:  39;                                

UNION CITY     CLOUDY    36  19  51 S7        30.28F WCI  30          
PARIS          CLOUDY    34  16  47 SE12      30.30F WCI  25          


...EASTERN ARKANSAS...
  
CITY           SKY/WX    TMP DP  RH WIND       PRES   REMARKS
JONESBORO      CLOUDY    38  26  62 S8        30.28F WCI  32          
6HR MIN TEMP:  33; 6HR MAX TEMP:  38;                                

WEST MEMPHIS   PTCLDY    36  19  50 S10       30.29F WCI  28          
6HR MIN TEMP:  31; 6HR MAX TEMP:  39;                                

BATESVILLE     CLOUDY    39  23  52 SE7       30.24F WCI  34          
6HR MIN TEMP:  36; 6HR MAX TEMP:  39;                                

NEWPORT        CLOUDY    38  28  67 SE8         N/A  WCI  32          
6HR MIN TEMP:  33; 6HR MAX TEMP:  40;                                

WALNUT RIDGE   CLOUDY    37  25  60 S8        30.25F WCI  31          
6HR MIN TEMP:  36; 6HR MAX TEMP:  37;                                

BLYTHEVILLE    CLOUDY    39  21  48 S10       30.31F WCI  32          
6HR MIN TEMP:  37; 6HR MAX TEMP:  40;                                

SEARCY         CLOUDY    41  28  60 S8        30.27F                  
6HR MIN TEMP:  37; 6HR MAX TEMP:  41;                                

STUTTGART      CLOUDY    41  27  56 SE9       30.27F                  
6HR MIN TEMP:  37; 6HR MAX TEMP:  41;                                

PINE BLUFF     CLOUDY    42  28  57 SE8       30.27F                  
6HR MIN TEMP:  35; 6HR MAX TEMP:  42; 6HR PCP: TRACE;                

MONTICELLO     CLOUDY    43  26  51 SE8       30.28F                  
6HR MIN TEMP:  34; 6HR MAX TEMP:  43;                                



...NORTH MISSISSIPPI...
  
CITY           SKY/WX    TMP DP  RH WIND       PRES   REMARKS
TUPELO         CLEAR     29  22  75 CALM      30.34F                  
6HR MIN TEMP:  29; 6HR MAX TEMP:  38;                                

CLARKSDALE     MOCLDY    36  25  64 SE8       30.33S WCI  29          
GREENWOOD      CLEAR     36  18  48 S7        30.33F WCI  30          
6HR MIN TEMP:  33; 6HR MAX TEMP:  42;                                

COLUMBUS       CLEAR     30  23  75 SE7       30.34F WCI  23          
6HR MIN TEMP:  26; 6HR MAX TEMP:  37;                                

STARKVILLE     CLEAR     28  27  93 CALM      30.37F                  
GOLDEN TRIANGL CLEAR     34  21  60 SE6       30.31F WCI  29          
6HR MIN TEMP:  30; 6HR MAX TEMP:  43;                                



...SOUTHEAST MISSOURI...
  
CITY           SKY/WX    TMP DP  RH WIND       PRES   REMARKS
KENNETT        CLOUDY    37  27  65 SE8       30.27F WCI  31          
WEST PLAINS    CLOUDY    36  22  56 S15G23    30.15F WCI  27          
6HR MIN TEMP:  32; 6HR MAX TEMP:  36;                                

POPLAR BLUFF   CLOUDY    38  24  57 S7        30.25F WCI  33          
6HR MIN TEMP:  35; 6HR MAX TEMP:  38;                                

CAPE GIRARDEAU CLOUDY    35  22  58 SE10      30.26F WCI  27          
6HR MIN TEMP:  35; 6HR MAX TEMP:  36;                                



...NORTHWEST ALABAMA...
  
CITY           SKY/WX    TMP DP  RH WIND       PRES   REMARKS
MUSCLE SHOALS  CLOUDY    27  21  78 SE5       30.36F WCI  22          
6HR MIN TEMP:  26; 6HR MAX TEMP:  37;                                



...MIDDLE TENNESSEE...
  
CITY           SKY/WX    TMP DP  RH WIND       PRES   REMARKS
NASHVILLE      CLOUDY    28  18  66 CALM      30.37F                  
6HR MIN TEMP:  26; 6HR MAX TEMP:  36;                                

CLARKSVILLE    CLOUDY    30  18  60 SE7       30.33F WCI  23          
6HR MIN TEMP:  25; 6HR MAX TEMP:  31;                                



...WESTERN KENTUCKY...
  
CITY           SKY/WX    TMP DP  RH WIND       PRES   REMARKS
PADUCAH        CLOUDY    38  16  40 S3        30.28F                  
6HR MIN TEMP:  35; 6HR MAX TEMP:  38;                                

FORT CAMPBELL  CLOUDY    33  15  48 SE10      30.31F WCI  24          
6HR MIN TEMP:  29; 6HR MAX TEMP:  33;                                



...CENTRAL ARKANSAS...
  
CITY           SKY/WX    TMP DP  RH WIND       PRES   REMARKS
LITTLE ROCK    CLOUDY    41  29  62 SE5       30.26F                  
6HR MIN TEMP:  37; 6HR MAX TEMP:  41;                                



SKY/WX REPORTED AS FAIR MEANS FEW OR NO CLOUDS BELOW
12 THOUSAND FEET.

  


238 
ASUS44 KMEG 110600
RWRTN 
TENNESSEE HOURLY STATE WEATHER ROUNDUP
NATIONAL WEATHER SERVICE MEMPHIS TN
1200 AM CST SUN DEC 11 2016

TNZ002-004-019-021-049-052-054-088>092-110700-
WEST TENNESSEE
  
CITY           SKY/WX    TMP DP  RH WIND       PRES   REMARKS
MEMPHIS INTL   PTCLDY    37  17  44 SE8       30.30F WCI  31          
NWS MEMPHIS      N/A     35 N/A N/A MISG        N/A                   
JACKSON        CLOUDY    38  17  42 S6        30.32F WCI  33          
DYERSBURG      CLOUDY    37  18  44 S7        30.31F WCI  32          
UNION CITY     CLOUDY    36  19  51 S7        30.28F WCI  30          
PARIS          CLOUDY    34  16  47 SE12      30.30F WCI  25          
$$

TNZ008-025-027-028-033-062-065-066-110700-
NORTH MIDDLE TENNESSEE
  
CITY           SKY/WX    TMP DP  RH WIND       PRES   REMARKS
NASHVILLE      CLOUDY    28  18  66 CALM      30.37F                  
CLARKSVILLE    CLOUDY    30  18  60 SE7       30.33F WCI  23          
SMYRNA         CLOUDY    23  20  88 SE3       30.39F                  
CROSSVILLE     CLOUDY    25  13  60 CALM      30.34F                  
$$

TNZ061-075-076-078-094-096-097-110700-
SOUTH MIDDLE TENNESSEE
  
CITY           SKY/WX    TMP DP  RH WIND       PRES   REMARKS
WINCHESTER     CLEAR     28  18  64 SE6       30.37F WCI  22          
$$

TNZ017-018-042-046-047-110700-
NORTHEAST TENNESSEE
  
CITY           SKY/WX    TMP DP  RH WIND       PRES   REMARKS
TRI CITIES     CLOUDY    23  17  78 CALM      30.37F                  
$$

TNZ012-013-036-069-073-074-110700-
CENTRAL EAST TENNESSEE
  
CITY           SKY/WX    TMP DP  RH WIND       PRES   REMARKS
KNOXVILLE      CLOUDY    26  18  71 CALM      30.39F                  
OAK RIDGE      CLOUDY    26  19  74 CALM      30.42F                  
GATLINBURG     CLEAR     21  16  79 CALM      30.38F                  
$$

TNZ083-085-099-110700-
SOUTHEAST TENNESSEE
  
CITY           SKY/WX    TMP DP  RH WIND       PRES   REMARKS
CHATTANOOGA    CLEAR     27  20  75 CALM      30.42F                  
$$

SKY/WX REPORTED AS FAIR MEANS FEW OR NO CLOUDS BELOW
12 THOUSAND FEET.

  

Return to Home page


Western Regional Climate Center, wrcc@dri.edu